アサシン彗星

C/2018 N2 ( ASASSN )

English version
Home page
Updated on July 29, 2021

---------------------------------------------------------------------

・ プロフィール

発見日 2018年7月7日
発見光度 16.4等
発見者 All-Sky Automated Survey for Supernovae (ASASSN) program

・ 写真集

・ 軌道要素

Epoch 2019 Nov. 13.0 TT = JDT 2458800.5
T 2019 Nov. 10.95962 TT                                 Rudenko
q   3.1246484            (2000.0)            P               Q
z  -0.0000537      Peri.   24.39552     +0.78558804     -0.45744197
 +/-0.0000003      Node    25.25925     +0.27011874     -0.35227582
e   1.0001679      Incl.   77.53194     +0.55667521     +0.81648551
From 4151 observations 2018 July 7-2021 May 1, mean residual 0".6.

・ 星図

・ 光度変化

        m1 = 6.0 + 5 logΔ + 7.5 log r

---------------------------------------------------------------------

軌道要素はM.P.E.C. 2021-J28に掲載されたものです。
星図はステラナビゲータ Ver.10 (アストロアーツ) で作成したものです。
光度グラフはComet for Windowsで作成したものです。

---------------------------------------------------------------------

Copyright(C) Seiichi Yoshida (comet@aerith.net). All rights reserved.